Weather History for KFLG - March, 2014

Change the Weather History Date:

Thursday, March 20, 2014

  Actual Average Record
Temperature  
Mean Temperature 38 °F 38 °F  
Max Temperature 59 °F 51 °F 72 °F (2004)
Min Temperature 17 °F 24 °F -1 °F (1935)
Degree Days  
Heating Degree Days 27 27  
Month to date heating degree days 494 578  
Since 1 July heating degree days 5095 5417  
Cooling Degree Days 0 0  
Month to date cooling degree days 0 0  
Year to date cooling degree days 0 0  
Moisture  
Dew Point 7 °F    
Average Humidity 34    
Maximum Humidity 56    
Minimum Humidity 11    
Precipitation  
Precipitation 0.00 in 0.07 in 0.69 in (1981)
Month to date precipitation 1.14 1.47  
Year to date precipitation 1.74 5.68  
Snow  
Snow 0.00 in 0.70 in 7.80 in (1981)
Month to date snowfall 1.1 14.8  
Since 1 July snowfall 34.6 88.0  
Snow Depth 0.00 in    
Sea Level Pressure  
Sea Level Pressure 30.06 in    
Wind  
Wind Speed 6 mph (SW)    
Max Wind Speed 24 mph    
Max Gust Speed 29 mph    
Visibility 10 miles    
Events      
T = Trace of Precipitation, MM = Missing Value Source: NWS Daily Summary

Daily Weather History Graph

Daily Weather History Graph

Search for Another Location

Airport or City:

Trip Planner

Search our weather history database for the weather conditions in past years. The results will help you decide how hot, cold, wet, or windy it might be!

Date:

Astronomy

Mar. 20, 2014 Rise Set
Actual Time 6:30 AM MST 6:38 PM MST
Civil Twilight 6:04 AM MST 7:03 PM MST
Nautical Twilight 5:35 AM MST 7:33 PM MST
Astronomical Twilight 5:05 AM MST 8:03 PM MST
Moon 10:52 PM MST (3/20) 8:47 AM MST (3/20)
Length of Visible Light 12h 58m
Length of Day
12h 08m
Waning Gibbous, 83% of the Moon is Illuminated
Mar 20
Waning Gibbous
Mar 23
Last Quarter
Mar 30
New
Apr 7
First Quarter
Apr 15
Full

Hourly Weather History & Observations

Time (MST) Temp. Windchill Dew Point Humidity Pressure Visibility Wind Dir Wind Speed Gust Speed Precip Events Conditions
12:57 AM 21.9 °F - 3.9 °F 46% 30.17 in 10.0 mi Calm Calm - N/A   Clear
1:57 AM 19.9 °F - 3.9 °F 50% 30.16 in 10.0 mi Calm Calm - N/A   Clear
2:57 AM 19.0 °F - 3.0 °F 50% 30.14 in 10.0 mi Calm Calm - N/A   Clear
3:57 AM 18.0 °F - 3.0 °F 52% 30.12 in 10.0 mi Calm Calm - N/A   Clear
4:57 AM 18.0 °F - 3.9 °F 54% 30.13 in 10.0 mi Calm Calm - N/A   Clear
5:57 AM 18.0 °F - 5.0 °F 57% 30.12 in 10.0 mi Calm Calm - N/A   Clear
6:57 AM 19.9 °F - 3.9 °F 50% 30.16 in 10.0 mi Calm Calm - N/A   Clear
7:57 AM 32.0 °F - 10.9 °F 42% 30.15 in 10.0 mi Calm Calm - N/A   Clear
8:57 AM 48.0 °F - 3.9 °F 16% 30.10 in 10.0 mi SW 9.2 mph - N/A   Clear
9:57 AM 51.1 °F - 5.0 °F 15% 30.10 in 10.0 mi SSW 15.0 mph - N/A   Clear
10:57 AM 52.0 °F - 6.1 °F 16% 30.09 in 10.0 mi SSW 13.8 mph 18.4 mph N/A   Clear
11:57 AM 54.0 °F - 3.9 °F 13% 30.06 in 10.0 mi SW 12.7 mph - N/A   Clear
12:57 PM 55.9 °F - 6.1 °F 14% 30.03 in 10.0 mi SSW 11.5 mph - N/A   Clear
1:57 PM 57.0 °F - 3.9 °F 12% 30.01 in 10.0 mi WSW 13.8 mph - N/A   Clear
2:57 PM 55.9 °F - 5.0 °F 13% 30.00 in 10.0 mi West 13.8 mph 21.9 mph N/A   Clear
3:57 PM 55.9 °F - 7.0 °F 14% 29.99 in 10.0 mi West 11.5 mph 23.0 mph N/A   Clear
4:57 PM 57.0 °F - 8.1 °F 14% 29.98 in 10.0 mi WSW 12.7 mph 19.6 mph N/A   Clear
5:57 PM 51.1 °F - 10.9 °F 20% 30.00 in 10.0 mi SSW 9.2 mph - N/A   Clear
6:57 PM 46.0 °F 41.9 °F 10.9 °F 24% 30.02 in 10.0 mi SW 8.1 mph - N/A   Clear
7:57 PM 42.1 °F 40.2 °F 10.0 °F 27% 30.00 in 10.0 mi SSW 3.5 mph - N/A   Clear
8:57 PM 37.9 °F - 10.0 °F 32% 29.95 in 10.0 mi Calm Calm - N/A   Clear
9:57 PM 33.1 °F - 10.0 °F 38% 29.96 in 10.0 mi Calm Calm - N/A   Clear
10:57 PM 32.0 °F 28.7 °F 10.9 °F 42% 29.96 in 10.0 mi Variable 3.5 mph - N/A   Clear
11:57 PM 32.0 °F 27.5 °F 12.0 °F 44% 29.93 in 10.0 mi WSW 4.6 mph - N/A   Clear